Location: Camps Bay
(33.9517°S, 18.3844°E)
Time: 02:39:12
(UTC+00:00)

STARLINK-1085 - Pass Details

Date: 18 January 2020
Orbit: 348 x 351 km, 53.0° (Epoch: 22 February)

Event Time Altitude Azimuth Distance (km) Brightness Sun altitude
Exits shadow 01:55:22 - 49° (NE) 2,126 6.7 -20.8°
Enters shadow 02:50:58 -74° 305° (NW) 12,632 10.5 -12.0°
Maximum altitude 03:30:40 51° 48° (NE) 456 3.4 -5.0°
